Starlink 31862

operational
NORAD ID: 59786 Int'l Des: 2024-093 Owner: SPXS Country: US Constellation: starlink
LEOCIRCULAR

关于 Starlink 31862

正在加载描述...

实时位置

正在加载3D地球...

即将过境

高度历史

Altitude vs Time

uPlot chart will show altitude changes over time

两行轨道根数

1 59786U 24093E 25259.98634894 -.00001978 00000-0 -62365-4 0 9990
2 59786 43.0019 109.5431 0001988 262.9267 97.1358 15.27570486 76132
Epoch: Sep 16, 2025 • Age: 34 hours

当前状态

高度 495.0 km
速度 7.62 km/s
星下点 -42.94°S, 126.31°W
发射日期 May 18, 2024
运行时间 1.3 years
类型 internet

技术详情

分类 Payload
质量 730.00 kg
干质量 700.00 kg
总质量 730.00 kg
长度 0.30 m
直径 4.10 m
跨度 29.00 m
形状 Box + pan
制造商 SPXS
平台类型 Starlink V2M
阶段状态 In Orbit
所有者/国家 SPXS/US

大型星座

Loading constellations...